Location: Celina Division
(33.3022°N, 96.7580°W)
Time: 08:12:14
(UTC+00:00)

Cosmos 1092 Rocket - Pass Details

Date: 08 December 2021
Orbit: 954 x 995 km, 83.0° (Epoch: 17 January)

Event Time Altitude Azimuth Distance (km) Brightness Sun altitude
Rises 12:46:39 0° 201° (SSW) 3,652 7.0 -6.9°
Reaches altitude 10° 12:49:15 10° 207° (SSW) 2,715 6.3 -6.4°
Maximum altitude 12:55:12 47° 280° (W) 1,280 4.3 -5.2°
Drops below altitude 10° 13:01:16 10° 353° (N) 2,754 6.1 -4.1°
Sets 13:03:55 0° 359° (N) 3,711 6.8 -3.6°
